TimeHST,TemperatureF,Dew PointF,Humidity,Sea Level PressureIn,VisibilityMPH,Wind Direction,Wind SpeedMPH,Gust SpeedMPH,PrecipitationIn,Events,Conditions,WindDirDegrees,DateUTC
12:13 AM,69.8,57.2,64,30.19,10.0,ENE,18.4,-,N/A,,Overcast,70,2013-02-28 10:13:00
12:46 AM,69.8,57.2,64,30.20,10.0,ENE,16.1,-,N/A,,Scattered Clouds,70,2013-02-28 10:46:00
12:53 AM,70.0,57.9,65,30.19,10.0,ENE,16.1,-,N/A,,Scattered Clouds,70,2013-02-28 10:53:00
1:53 AM,70.0,57.9,65,30.18,10.0,NE,16.1,-,N/A,,Scattered Clouds,50,2013-02-28 11:53:00
2:00 AM,69.8,57.2,64,30.18,10.0,NE,15.0,-,N/A,,Mostly Cloudy,50,2013-02-28 12:00:00
2:24 AM,69.8,57.2,64,30.17,10.0,NE,15.0,-,N/A,,Mostly Cloudy,50,2013-02-28 12:24:00
2:53 AM,70.0,57.9,65,30.17,10.0,NE,15.0,-,N/A,,Scattered Clouds,50,2013-02-28 12:53:00
3:53 AM,70.0,59.0,68,30.16,10.0,NE,13.8,-,N/A,,Mostly Cloudy,50,2013-02-28 13:53:00
4:53 AM,70.0,61.0,73,30.16,10.0,NE,16.1,-,N/A,,Mostly Cloudy,40,2013-02-28 14:53:00
5:53 AM,70.0,62.1,76,30.17,10.0,NE,19.6,-,N/A,,Overcast,50,2013-02-28 15:53:00
6:53 AM,70.0,61.0,73,30.18,10.0,ENE,19.6,-,0.00,,Mostly Cloudy,70,2013-02-28 16:53:00
7:53 AM,71.1,61.0,70,30.20,10.0,East,20.7,-,N/A,,Mostly Cloudy,80,2013-02-28 17:53:00
8:53 AM,73.0,59.0,61,30.21,10.0,East,23.0,-,N/A,,Clear,80,2013-02-28 18:53:00
9:53 AM,73.9,60.1,62,30.23,10.0,ENE,20.7,-,N/A,,Clear,70,2013-02-28 19:53:00
10:53 AM,75.0,61.0,62,30.24,10.0,ENE,18.4,-,N/A,,Scattered Clouds,70,2013-02-28 20:53:00
11:53 AM,75.9,57.0,52,30.22,10.0,ENE,16.1,-,N/A,,Clear,60,2013-02-28 21:53:00
12:53 PM,75.9,59.0,56,30.20,10.0,ENE,15.0,-,N/A,,Clear,70,2013-02-28 22:53:00
1:53 PM,75.0,60.1,60,30.19,10.0,ENE,13.8,-,N/A,,Mostly Cloudy,60,2013-02-28 23:53:00
2:53 PM,75.9,61.0,60,30.17,10.0,NE,16.1,-,N/A,,Scattered Clouds,50,2013-03-01 00:53:00
3:53 PM,75.0,60.1,60,30.17,10.0,NE,16.1,-,N/A,,Mostly Cloudy,50,2013-03-01 01:53:00
4:31 PM,73.4,60.8,65,30.18,10.0,NE,15.0,-,N/A,,Mostly Cloudy,50,2013-03-01 02:31:00
4:53 PM,73.0,60.1,64,30.18,10.0,NE,16.1,-,N/A,,Overcast,50,2013-03-01 02:53:00
5:28 PM,73.4,60.8,65,30.19,10.0,NE,15.0,-,N/A,,Scattered Clouds,50,2013-03-01 03:28:00
5:53 PM,71.1,60.1,68,30.19,10.0,NE,16.1,24.2,N/A,,Scattered Clouds,50,2013-03-01 03:53:00
6:53 PM,70.0,60.1,71,30.20,10.0,NE,20.7,-,N/A,,Scattered Clouds,50,2013-03-01 04:53:00
7:44 PM,69.8,59.0,68,30.22,10.0,NE,21.9,-,N/A,,Overcast,50,2013-03-01 05:44:00
7:53 PM,70.0,59.0,68,30.22,10.0,ENE,19.6,-,N/A,,Mostly Cloudy,60,2013-03-01 05:53:00
8:13 PM,71.6,60.8,69,30.22,10.0,NE,18.4,-,N/A,,Mostly Cloudy,50,2013-03-01 06:13:00
8:37 PM,71.6,60.8,69,30.23,10.0,ENE,20.7,-,N/A,,Mostly Cloudy,60,2013-03-01 06:37:00
8:53 PM,70.0,57.9,65,30.22,10.0,NE,17.3,-,N/A,,Scattered Clouds,50,2013-03-01 06:53:00
9:53 PM,71.1,60.1,68,30.24,10.0,NE,24.2,-,N/A,,Mostly Cloudy,40,2013-03-01 07:53:00
10:53 PM,70.0,60.1,71,30.24,10.0,NE,24.2,29.9,N/A,,Scattered Clouds,50,2013-03-01 08:53:00
11:53 PM,70.0,59.0,68,30.24,10.0,NE,21.9,27.6,N/A,,Mostly Cloudy,50,2013-03-01 09:53:00